Lid_Strength_Index
1 1 1 1 1 1 1 2 1 2 2 2 1 1 2 2 1 0 -0 0 0 -0 -1 -1 -0 -0 1 5 6 1 1 1 2 3 4 6 7 7 9 8 9 10 10 7 6 7 7
1 1 1 1 1 1 1 1 1 2 2 1 1 1 2 2 1 1 0 -0 1 0 -1 -1 -0 -0 3 9 1 1 1 2 3 4 4 5 6 7 8 9 10 9 9 9 6 7 7
1 1 1 1 1 1 1 0 0 1 1 0 0 0 0 2 2 1 1 -0 1 0 -0 -1 -0 1 4 6 1 2 2 3 3 3 5 4 4 6 8 9 8 9 11 9 8 7 8
1 1 1 1 1 1 1 0 0 -0 -0 -0 -0 -0 -0 0 1 1 1 -0 0 0 -0 -1 -1 2 6 1 0 3 3 4 3 3 4 3 4 6 8 8 9 11 11 13 10 9 8
1 1 1 1 0 -0 -1 -1 -1 -1 -1 -1 -1 -1 -1 -0 0 0 -0 -0 0 0 -1 -1 1 3 8 -0 3 1 2 5 4 4 4 3 5 8 8 10 12 12 15 13 12 11 11
-0 -0 -1 -2 -2 -2 -1 -2 -1 -1 -1 -1 -1 -2 -1 -1 -1 -1 -1 -0 0 0 1 1 1 7 5 6 3 1 1 3 5 6 7 6 8 10 10 12 17 15 15 14 15 13 12
-1 -1 -2 -2 -2 -2 -2 -1 -2 -1 -1 -1 -1 -2 -1 -1 -1 -1 -0 2 5 6 3 6 6 7 7 6 3 3 2 4 5 7 10 8 11 14 12 11 11 12 13 14 13 12 13
-0 -2 -2 -2 -1 -1 -2 -2 -1 -1 -1 -1 -1 -1 -1 -1 -1 -1 1 4 4 4 9 4 4 4 4 5 7 4 2 7 8 11 9 11 13 11 9 10 11 12 13 14 12 12 13
-1 -2 -1 -1 -1 -1 -1 -1 -1 -1 -1 -1 -1 -1 -2 -1 -1 0 2 3 0 1 8 7 5 5 5 5 7 7 4 6 9 11 11 12 11 9 10 11 13 13 13 14 14 13 12
-1 -1 -1 -1 -1 -1 -1 -1 -2 -1 -1 -1 -1 -1 -1 -2 1 2 3 0 0 0 12 11 8 6 5 5 9 4 3 7 9 11 10 11 9 10 11 12 12 15 11 12 14 14 17
-1 -1 -1 -1 -1 -1 -1 -2 -2 -1 -1 -2 -1 -1 -2 -1 3 4 2 -0 1 3 20 9 8 2 4 7 7 7 3 8 11 10 10 12 12 11 12 11 10 13 10 13 13 14 15
-1 -1 -1 -1 -1 -1 -1 -2 -1 -1 -1 -1 -1 -2 -2 0 1 1 -0 1 3 13 20 12 8 9 9 8 8 7 6 5 7 11 11 13 10 10 10 9 10 11 12 13 13 15 19
-1 -1 -1 -1 -1 -1 -2 -1 -1 -1 -1 -2 -2 -2 -0 1 3 0 1 4 13 18 11 13 12 10 10 11 10 9 10 11 12 15 16 14 12 11 9 11 10 11 15 19 20 20 21
-1 -1 -1 -1 -1 -2 -2 -1 -1 -1 -1 -2 -1 -0 1 1 1 0 3 12 21 14 13 10 12 11 12 11 11 10 10 13 11 12 15 17 18 13 11 11 13 13 14 19 23 22 21
-1 -1 -1 -1 -2 -1 -1 -1 -1 -1 -2 -2 -2 1 3 2 1 1 8 18 18 14 11 13 11 13 13 12 11 11 12 12 11 11 15 16 16 11 11 11 11 13 16 13 19 22 21
-1 -1 -1 -1 -1 -1 -1 -1 -1 -1 -2 -2 3 4 4 1 1 4 12 15 13 9 10 10 14 13 15 13 13 13 13 12 11 9 10 13 16 12 11 11 11 13 13 17 19 25 25
-1 -1 -1 -1 -1 -1 -1 -1 -2 -2 -1 -1 4 8 3 2 4 10 15 15 11 8 9 11 13 15 13 13 12 13 13 12 10 10 9 11 13 14 12 13 15 15 17 16 16 19 23
-1 -1 -1 -1 -1 -1 -2 -2 -2 -2 -2 1 6 13 4 4 12 11 12 11 9 9 8 9 10 12 12 13 14 13 14 12 10 10 12 11 13 18 15 12 11 12 15 15 19 20 19
-1 -2 -2 -2 -2 -2 -2 -1 -1 -1 -1 4 8 8 4 5 16 20 14 10 9 11 10 10 11 10 10 12 15 13 13 10 9 9 11 10 14 18 16 14 12 14 14 14 14 16 19
0 -1 -1 -1 -1 -2 -2 -2 -1 -1 -0 3 8 14 11 9 10 14 16 14 13 9 11 10 10 10 12 12 11 13 13 11 10 10 9 9 14 16 18 17 14 15 14 14 14 18 18
1 0 -1 -1 -1 -1 -1 -1 -1 0 -0 5 11 14 14 16 14 12 11 12 14 15 11 11 12 13 13 14 13 14 13 12 11 10 10 10 15 14 13 13 13 13 13 13 14 14 17
1 1 0 -0 -1 -1 -0 -1 0 1 0 7 12 13 13 18 12 12 13 15 14 14 12 13 14 13 13 15 14 16 14 13 13 12 12 11 14 14 15 13 13 14 13 13 13 13 13
1 1 1 0 0 -1 -1 0 1 1 2 8 8 8 10 11 14 15 15 14 13 12 11 11 12 13 14 14 12 11 11 11 12 13 14 13 14 16 18 15 15 18 15 13 12 12 11
1 1 1 1 1 0 -0 -0 0 1 1 6 7 7 12 17 13 14 11 11 11 12 12 11 10 12 11 9 10 12 13 13 13 13 12 14 16 17 20 19 23 15 13 12 12 12 11
2 1 1 2 1 1 0 0 -0 0 1 6 7 7 11 16 14 12 11 11 11 11 11 11 10 10 9 11 16 21 21 20 18 14 14 13 15 22 22 28 19 17 15 15 14 16 13
2 2 2 2 2 2 1 1 1 0 0 6 7 6 9 12 14 10 12 11 16 18 15 11 9 8 9 12 21 27 25 27 23 20 14 13 15 21 29 27 26 17 15 13 12 17 13
3 3 2 3 3 2 2 2 2 1 1 5 7 6 9 13 12 11 14 13 11 13 16 15 12 12 10 18 26 25 25 21 24 26 25 25 26 25 29 29 23 16 13 12 19 17 12
4 4 3 3 3 3 3 2 2 2 2 6 7 7 8 13 12 9 10 13 13 13 16 12 15 15 17 21 23 24 25 21 21 18 19 21 25 26 28 28 25 13 13 16 14 12 12
5 5 4 4 4 4 3 2 3 3 2 4 9 6 7 11 10 9 9 9 10 11 12 13 13 17 12 19 20 21 23 23 22 25 14 20 16 19 18 18 13 12 12 11 11 12 12